GEFSSE_con_cape1000_192.txt.gz
Probability
23 55 90 90 94 94 97 97 100 94 94 94 100 100 100 97 94 97 97 97 94 97 94 90 90 90 90 90 94 94 94 94 90 90 90 87 94 94 94 94 94 77 97
42 61 90 94 97 94 97 97 94 97 97 94 97 94 100 97 97 97 100 100 100 100 94 94 90 90 94 90 90 90 87 87 90 90 90 87 87 97 97 90 94 81 94
45 61 87 97 94 94 97 97 94 94 97 97 97 94 97 100 97 97 100 100 100 97 94 90 94 94 90 90 90 90 87 84 87 90 87 42 68 90 94 90 90 94 90
48 68 77 97 97 94 94 94 94 90 97 97 97 97 94 97 100 100 100 100 97 90 90 90 94 94 90 87 87 87 87 84 84 84 48 19 35 84 90 94 94 94 97
65 74 94 97 94 94 94 97 94 94 94 97 94 97 97 100 97 97 100 97 97 97 90 90 90 90 90 87 77 74 74 74 84 81 45 48 61 81 90 90 84 87 87
74 81 94 94 94 94 94 94 94 94 97 97 94 97 100 97 100 100 100 97 90 90 90 94 90 90 87 77 68 71 61 71 77 48 58 52 61 81 81 84 84 81 84
65 81 90 94 94 94 94 94 97 94 97 94 94 97 94 90 97 100 100 87 90 94 94 94 94 90 81 71 61 61 74 77 58 55 71 68 81 94 84 77 81 84 84
61 81 90 94 94 94 94 94 97 97 97 97 97 97 94 94 94 100 87 87 87 94 94 94 94 77 68 65 45 58 68 77 55 55 61 58 87 94 77 77 77 77 81
61 81 90 90 94 94 94 94 94 97 94 97 97 97 94 94 90 97 90 87 90 94 94 90 81 74 58 52 42 58 71 87 39 32 29 45 94 94 68 71 68 61 71
68 81 84 90 94 87 90 97 97 97 97 97 97 97 94 90 90 87 94 94 90 94 94 90 84 81 71 55 45 55 74 81 26 29 26 52 97 90 74 61 71 71 68
71 81 81 94 94 90 81 90 97 97 97 97 94 94 94 84 74 84 77 90 87 90 87 84 84 74 71 55 58 68 68 42 39 32 26 81 94 90 71 58 65 61 58
81 81 81 84 90 87 87 94 97 94 94 94 97 97 94 94 84 74 90 94 84 84 77 77 87 87 68 45 42 55 42 26 29 29 42 87 84 77 61 65 58 52 52
77 81 84 87 90 87 90 97 97 94 97 94 97 97 97 87 77 77 77 87 87 81 81 84 84 74 58 61 65 58 39 23 29 16 42 87 81 74 58 58 52 55 45
77 81 81 87 90 97 94 94 97 94 94 97 97 97 97 97 90 84 87 84 87 87 87 81 87 74 71 55 61 42 35 35 39 23 55 81 81 74 71 65 55 42 42
87 87 94 94 90 94 94 94 97 97 94 94 94 94 94 90 97 87 97 97 87 87 87 84 87 81 74 68 48 32 39 35 45 29 39 81 81 87 71 58 55 61 45
87 87 94 94 100 100 97 94 97 97 97 94 94 87 87 94 97 97 90 100 97 94 90 87 81 81 74 81 65 48 42 45 45 48 35 68 81 87 84 65 52 52 39
90 94 97 97 100 100 100 97 94 97 90 90 90 90 90 97 100 100 97 97 94 90 87 87 77 87 81 68 71 68 55 55 48 45 52 42 48 77 81 77 71 61 55
94 100 97 94 97 100 100 100 100 94 90 100 100 94 90 94 97 100 94 100 97 94 94 94 94 84 87 81 87 81 68 74 58 58 61 61 55 32 52 71 71 74 71
100 100 100 100 100 100 100 100 100 97 97 97 100 94 90 87 87 97 97 100 97 94 87 74 87 87 90 87 77 90 71 61 74 45 58 65 68 65 52 48 84 84 71
100 100 100 100 100 100 97 97 97 97 97 97 97 94 90 90 84 97 97 100 94 97 94 90 87 90 94 87 48 55 81 71 81 74 52 48 65 58 55 42 42 52 84
100 100 100 100 100 97 97 94 94 97 90 90 87 90 90 90 90 94 90 97 100 97 97 87 87 87 84 87 77 74 61 45 65 81 68 58 45 58 55 65 52 42 35
100 100 97 100 100 97 97 97 97 97 94 90 90 84 90 90 90 84 97 97 100 100 94 90 94 87 84 87 84 74 45 39 58 10 55 65 48 58 48 29 61 65 55
100 100 97 97 100 100 100 100 94 94 90 87 84 87 90 94 90 94 94 90 97 97 97 94 94 87 87 84 84 77 55 32 39 39 45 35 58 65 42 35 45 58 58
100 97 100 100 100 97 100 100 94 94 94 87 81 84 87 90 87 87 87 90 90 87 100 97 87 87 87 74 77 81 77 61 42 29 29 32 26 42 32 26 19 48 52
97 97 100 100 100 100 100 100 94 97 90 90 87 84 81 84 87 81 87 84 94 90 100 94 94 87 74 68 71 68 65 61 55 23 3 16 19 23 23 32 29 39 35
97 97 97 100 100 100 100 100 100 97 94 90 84 90 84 81 84 81 81 81 90 87 97 97 97 84 81 68 65 58 71 55 45 29 6 13 16 19 29 29 32 26 29

GEFSSE_con_cape1000_198.txt.gz
Probability
65 84 97 97 97 97 97 97 97 97 97 97 97 94 100 97 97 94 94 90 97 94 94 94 94 94 94 94 94 90 90 87 90 87 84 90 87 94 97 94 84 68 90
71 87 97 97 97 97 97 97 100 100 100 100 100 100 100 97 94 94 94 97 97 94 94 90 90 90 90 90 90 87 94 94 90 97 90 84 90 94 94 90 71 74 94
74 81 97 97 97 97 97 97 97 97 97 100 100 100 100 100 100 97 97 97 94 90 90 90 90 90 90 90 90 87 90 90 90 94 84 42 84 97 97 94 90 94 94
71 81 94 97 97 97 97 94 94 97 97 97 100 100 100 100 100 97 97 90 87 90 90 90 90 87 87 84 84 84 87 90 81 74 16 32 52 90 94 94 94 94 94
61 84 94 97 97 97 97 97 94 97 97 100 97 100 100 97 97 97 94 90 90 90 87 90 90 84 84 81 81 87 87 84 77 35 13 23 48 84 90 94 94 87 94
74 87 94 97 97 97 97 97 97 97 100 100 97 100 100 100 100 100 90 90 90 90 87 90 87 81 87 74 77 84 84 84 48 16 26 35 48 84 84 87 94 87 94
77 90 94 94 94 94 94 94 97 97 97 100 100 100 100 100 100 97 90 87 87 90 87 84 84 81 74 77 81 77 84 77 10 16 23 29 52 87 87 77 84 84 84
87 94 94 94 94 94 94 94 94 97 97 100 100 100 100 100 94 94 90 94 90 84 84 77 74 77 61 61 71 74 77 74 23 19 23 35 84 87 84 81 84 84 77
84 94 94 94 94 94 94 94 94 97 100 100 100 100 100 100 94 90 94 94 90 87 84 71 61 55 48 55 58 74 84 71 0 3 23 45 94 87 81 81 81 84 77
77 84 87 87 90 94 94 97 97 97 97 100 100 100 100 100 90 90 94 94 90 84 77 65 52 45 58 61 65 71 87 55 3 6 23 52 87 77 74 71 74 74 71
68 84 81 81 81 81 94 97 97 97 97 97 97 94 87 65 68 87 87 94 94 81 74 65 55 52 52 45 65 84 39 10 0 3 26 74 84 77 61 71 71 71 68
68 71 74 71 74 77 87 90 84 90 81 77 74 74 52 42 42 71 94 87 87 77 74 71 68 71 48 13 32 42 10 6 3 6 42 87 94 84 68 61 58 58 65
61 77 65 71 74 71 74 81 65 61 68 71 65 55 48 32 32 45 52 71 74 77 42 45 55 32 23 6 0 0 3 6 3 6 42 94 94 84 71 58 61 52 58
61 71 65 74 65 48 65 74 68 58 61 68 61 61 39 19 23 23 29 29 26 19 19 16 13 26 10 10 10 3 0 0 3 3 29 90 87 77 77 65 58 52 45
61 65 65 68 58 48 52 61 68 61 55 58 58 48 45 23 19 19 19 19 23 16 16 16 10 10 6 6 3 3 0 0 0 0 16 81 87 77 58 65 68 52 39
45 55 55 71 65 61 55 61 68 61 55 55 52 42 32 16 19 19 19 19 23 23 23 16 3 3 0 0 3 0 3 0 0 0 6 58 87 87 87 65 68 65 42
48 61 58 65 65 55 61 58 58 61 65 55 52 39 35 26 19 23 23 19 19 19 16 10 0 0 0 0 3 3 0 0 0 0 6 6 39 87 90 87 81 61 61
55 52 58 74 68 58 58 55 65 45 48 45 42 42 35 29 29 26 26 26 19 16 13 3 3 0 0 0 0 0 0 0 0 0 0 3 3 6 58 90 87 84 68
58 55 74 77 74 71 68 74 68 48 45 45 35 35 45 39 32 29 29 23 26 13 6 3 6 0 3 0 0 0 0 0 0 0 0 3 3 3 3 29 87 90 81
68 68 74 74 71 71 71 77 58 48 35 35 29 26 29 35 32 32 29 26 29 16 10 0 3 3 3 0 3 3 3 3 0 0 0 0 0 3 0 3 19 39 77
71 74 74 74 74 81 81 77 58 48 42 26 26 29 26 32 35 29 35 26 23 16 13 10 6 6 3 3 3 3 0 0 0 0 0 0 0 0 0 0 0 3 10
81 77 81 74 81 77 81 65 58 52 35 39 29 29 32 35 29 29 23 19 19 16 10 10 10 10 6 6 3 0 0 0 0 0 0 0 0 0 0 0 0 0 0
90 87 84 81 81 77 81 74 61 55 45 42 32 32 32 35 35 32 19 19 16 13 16 10 10 6 6 0 0 0 0 0 0 0 0 0 0 0 0 0 0 0 0
90 87 87 84 84 84 77 77 71 65 55 32 32 29 23 26 26 26 23 23 16 19 16 13 13 0 0 0 0 0 0 0 0 0 0 0 0 0 0 0 0 0 0
87 87 87 87 84 84 77 74 71 55 55 29 26 35 32 32 32 32 26 23 23 16 10 13 10 0 3 3 0 0 0 0 0 0 0 0 0 0 0 0 0 0 0
84 90 87 87 87 84 77 77 68 55 55 52 42 42 39 35 35 26 29 26 23 26 19 19 13 13 3 6 3 0 0 0 0 0 0 0 0 0 0 0 0 0 0

GEFSSE_con_cape1000_204.txt.gz
Probability
35 58 94 94 90 94 97 97 97 97 97 100 100 100 97 90 90 94 94 97 97 94 90 97 94 90 81 87 90 87 90 94 90 90 90 84 87 84 87 90 74 58 90
48 68 97 94 90 90 94 97 97 97 97 100 100 97 97 97 97 97 97 97 97 97 97 90 90 94 97 94 94 90 90 90 84 87 87 84 87 90 87 90 74 71 81
65 77 90 94 87 87 94 97 97 94 97 97 97 97 97 97 97 97 94 94 94 94 94 94 94 97 97 90 94 94 94 87 90 87 77 65 81 87 84 87 84 87 87
65 68 77 97 94 90 94 97 97 97 97 97 97 97 97 97 97 94 94 97 97 94 94 90 87 87 87 90 94 97 94 90 87 65 35 52 71 90 87 90 90 84 84
65 74 97 97 97 97 97 97 97 97 94 94 94 94 97 97 97 97 94 97 97 94 87 90 90 87 87 90 87 87 87 84 74 26 19 35 68 94 94 94 87 81 74
68 84 97 97 97 97 97 97 97 97 97 94 97 97 97 97 97 94 90 94 94 90 90 94 90 87 94 87 84 84 81 77 23 16 26 42 65 87 84 81 71 68 74
74 90 94 97 97 97 97 97 97 97 94 94 100 100 100 97 94 90 90 87 87 87 87 94 87 87 90 84 90 87 77 61 13 19 29 42 68 90 90 77 74 74 65
77 87 90 97 97 94 94 97 97 97 97 97 100 97 97 94 90 87 87 81 81 81 84 81 77 71 81 84 87 84 68 55 23 19 26 55 74 94 81 87 77 77 68
84 81 84 87 94 94 94 97 97 97 97 100 100 97 97 94 94 87 84 77 81 81 74 68 65 58 65 71 74 74 71 52 13 16 23 48 71 81 68 74 74 71 61
77 81 81 81 84 87 87 97 97 97 97 100 100 97 97 94 87 87 87 84 77 74 74 61 58 55 58 65 74 74 74 42 10 16 26 55 74 77 71 65 68 52 55
74 74 71 81 81 84 87 90 90 97 94 97 97 97 87 61 71 81 87 84 81 68 55 58 58 55 61 65 68 77 42 13 6 19 26 52 81 81 84 74 68 58 58
71 74 71 71 77 77 87 77 74 81 74 65 65 45 39 35 48 74 94 94 71 71 65 68 74 55 32 19 39 35 16 13 10 13 29 55 68 61 71 65 61 65 52
55 74 71 68 65 71 68 68 68 65 65 58 58 32 29 29 26 35 52 58 39 45 26 29 29 19 16 10 13 10 13 6 10 19 32 61 74 65 48 58 48 48 45
42 61 65 58 55 55 58 61 55 61 48 55 42 35 23 19 16 13 19 32 26 23 13 16 10 6 10 6 3 3 10 6 10 13 26 65 81 68 52 58 45 42 45
35 42 48 58 55 48 35 48 52 45 42 35 29 29 23 19 16 16 19 13 16 13 10 6 6 10 6 3 0 3 6 6 6 6 19 48 77 87 61 52 42 39 32
32 29 35 45 42 39 29 29 35 35 32 29 26 26 23 19 16 16 13 16 16 13 6 6 10 6 0 3 3 0 3 6 10 6 6 32 65 84 81 74 52 42 42
29 29 32 29 26 29 29 29 35 26 29 32 26 29 26 19 13 13 13 16 13 13 6 3 3 0 0 0 0 0 0 6 10 6 6 13 32 65 81 71 71 55 52
23 19 32 48 35 26 29 29 23 32 23 26 26 23 26 16 10 10 13 13 10 10 6 6 0 0 0 0 0 0 0 0 6 10 10 10 16 10 42 71 71 68 61
35 26 35 35 32 26 29 19 19 26 26 23 19 19 23 23 19 19 19 16 10 6 3 0 0 0 0 0 0 6 3 3 3 6 6 3 3 10 10 16 61 61 61
32 32 35 26 23 19 19 13 23 19 19 16 16 13 23 23 19 16 23 16 16 6 3 0 0 0 0 0 3 3 3 3 0 0 0 3 3 3 3 6 16 35 45
39 39 32 26 23 16 26 26 23 23 16 16 10 10 19 19 23 16 19 13 13 13 10 10 3 6 6 0 3 3 0 0 0 0 0 0 0 0 3 3 6 10 16
39 32 32 29 23 19 29 26 23 13 16 13 10 16 13 13 16 23 13 13 13 13 6 6 6 6 3 0 0 0 0 0 0 0 0 0 0 0 3 0 0 6 10
45 39 39 32 32 26 19 16 16 13 13 26 23 16 16 16 19 16 10 13 13 13 6 6 6 3 0 0 0 0 0 0 0 0 0 0 0 0 0 0 0 0 0
48 42 35 29 29 39 26 32 29 23 23 16 13 16 13 23 26 19 10 10 10 6 0 0 0 0 0 0 0 0 0 0 0 0 0 0 0 0 0 0 0 0 0
42 39 42 45 35 42 32 39 35 29 16 6 6 19 13 13 16 16 13 10 6 6 0 3 0 0 0 0 0 0 0 0 0 0 0 0 0 0 0 0 0 0 0
42 55 48 45 42 35 39 35 32 42 23 23 16 19 13 6 10 10 10 6 6 6 6 3 0 0 0 0 0 0 0 0 0 0 0 0 0 0 0 0 0 0 0

GEFSSE_con_cape1000_210.txt.gz
Probability
13 45 74 84 87 84 87 87 87 90 90 90 90 94 94 94 94 94 94 97 97 97 97 90 87 87 87 84 87 87 87 87 81 81 81 84 81 81 87 81 71 55 81
23 45 84 87 90 90 87 87 90 94 90 87 94 97 97 97 97 97 97 97 97 97 97 97 97 90 90 87 90 90 97 94 87 81 77 81 81 81 84 71 84 74 87
32 55 84 87 90 94 90 94 90 90 94 90 90 94 94 90 90 97 97 97 97 97 97 94 94 97 94 87 90 94 94 97 84 71 77 45 71 84 84 81 77 77 77
35 55 71 87 87 94 97 97 97 94 94 94 94 97 94 90 97 97 97 97 97 90 90 90 94 90 87 87 90 90 87 81 58 65 39 32 42 71 77 77 77 68 71
48 61 81 94 90 94 97 94 94 94 94 94 94 94 97 97 94 94 97 97 97 90 94 94 90 87 90 90 87 84 84 65 42 35 39 45 68 77 77 77 74 68 65
45 58 87 97 97 97 97 97 90 94 90 90 94 94 94 94 94 97 97 94 94 97 94 94 94 87 94 94 81 81 71 32 32 29 35 42 52 77 77 65 68 61 68
45 58 74 97 97 97 97 97 94 94 94 90 90 94 94 90 90 87 90 94 94 94 90 87 90 84 84 87 87 71 52 39 23 26 35 42 68 84 77 61 68 68 61
42 58 81 97 97 97 97 97 97 94 97 94 94 94 87 87 84 87 90 94 90 87 87 87 84 84 77 77 74 65 45 42 16 19 42 55 77 84 71 68 68 65 68
45 65 74 74 87 94 94 97 97 97 97 94 90 90 90 87 87 94 94 94 87 81 71 77 61 58 65 68 71 58 42 52 23 19 16 42 71 74 68 61 65 61 61
52 58 71 81 84 81 87 94 94 97 97 94 94 90 87 87 87 87 90 90 84 77 71 65 61 45 58 68 71 42 32 45 10 16 32 35 74 68 61 55 52 58 48
48 68 74 77 77 71 71 84 90 94 97 97 90 87 87 77 68 84 81 81 77 77 68 58 55 55 61 61 61 48 39 42 16 19 32 48 68 61 65 52 48 45 45
48 61 65 71 68 65 71 84 84 74 94 90 90 81 90 87 84 71 84 71 68 65 68 68 52 45 42 48 42 42 32 13 16 19 35 65 68 68 65 61 55 45 42
52 61 68 74 71 68 74 81 77 71 84 81 81 84 87 74 77 71 74 77 71 52 48 48 39 26 16 32 39 26 19 19 19 29 35 52 55 58 61 52 55 55 45
48 52 61 74 77 77 77 71 71 68 71 68 77 77 74 61 77 74 81 61 45 55 68 35 52 29 23 26 26 19 19 10 19 29 68 55 55 55 55 48 45 45 48
58 61 77 84 84 84 90 84 65 77 65 71 81 77 71 58 68 65 74 71 48 45 29 42 32 48 35 26 19 16 13 10 10 13 35 61 48 52 48 52 48 48 42
55 65 81 81 87 87 90 87 81 74 90 71 81 74 81 65 68 71 71 68 55 45 42 42 39 48 45 39 26 29 29 16 16 19 23 48 58 61 61 52 48 39 39
61 61 84 84 87 94 94 87 81 81 74 84 84 77 81 84 87 71 68 58 55 55 52 55 45 35 35 32 29 32 32 42 23 26 16 35 45 52 71 68 61 48 48
61 71 84 68 87 94 94 94 87 74 77 87 84 81 77 81 81 87 68 58 65 55 61 65 58 52 42 35 45 35 35 52 32 26 16 29 32 32 48 61 61 55 45
74 81 84 84 87 94 94 94 90 90 87 84 84 74 81 84 81 81 81 71 77 65 65 58 61 61 48 61 35 61 32 39 42 26 26 19 26 48 52 55 58 55 48
81 87 87 90 97 94 90 87 87 87 84 87 84 87 84 90 87 81 87 90 68 71 81 74 74 84 71 77 19 32 39 29 35 32 35 19 32 29 26 29 52 48 39
87 90 94 94 97 97 90 84 87 77 81 87 84 90 90 87 81 87 77 94 87 87 87 71 65 65 61 65 61 58 23 29 35 42 39 32 23 26 29 35 55 55 48
90 94 94 90 94 94 97 97 94 84 77 84 81 84 87 81 84 81 90 87 84 90 94 87 90 74 65 61 52 42 45 32 42 19 39 39 29 26 26 23 55 58 52
87 87 84 97 97 90 90 87 90 90 87 81 87 87 87 87 84 84 87 77 81 77 81 84 87 81 68 61 52 45 35 32 16 16 32 26 35 39 42 45 32 42 45
90 87 97 100 97 97 90 90 84 87 81 84 90 90 90 90 84 81 81 84 84 77 87 77 61 77 81 61 61 68 52 42 48 32 26 13 23 45 29 13 16 29 45
90 90 90 94 94 97 94 94 97 84 81 77 87 90 94 87 84 81 81 84 84 81 77 71 77 74 68 65 55 58 55 58 39 29 29 26 23 23 16 16 10 19 35
87 87 87 90 90 94 94 90 94 94 94 84 87 84 84 87 84 81 71 81 74 77 71 74 77 74 65 68 61 32 35 39 39 39 42 35 35 19 13 13 16 26 23

GEFSSE_con_cape1000_216.txt.gz
Probability
29 58 87 84 84 94 87 81 84 84 87 90 90 97 87 90 94 94 94 97 87 87 84 84 87 77 77 77 77 81 81 87 87 90 84 84 84 87 90 77 71 55 84
32 71 84 84 87 87 84 84 87 90 94 94 94 100 100 97 94 94 94 94 94 94 90 90 87 87 84 81 87 87 84 87 90 94 90 87 87 77 81 81 84 65 84
29 61 77 87 87 87 87 87 87 90 90 87 90 100 100 100 94 94 97 97 94 94 94 90 94 94 87 90 90 87 84 81 81 84 84 29 71 84 81 87 87 87 84
48 55 77 90 90 87 87 87 90 90 90 87 94 97 94 97 97 97 97 97 87 90 94 90 90 87 81 84 84 71 65 58 61 81 55 23 26 74 84 81 77 81 81
61 71 81 90 90 90 94 94 90 90 90 94 94 94 94 94 94 97 94 90 90 90 87 90 90 77 81 74 71 52 55 65 74 68 55 45 42 81 77 68 71 74 81
58 65 81 90 90 94 94 94 94 94 94 94 94 90 94 94 94 94 97 97 87 87 84 87 87 84 84 74 55 42 35 55 65 35 55 42 39 74 74 68 65 71 71
48 71 81 97 97 94 90 94 94 94 94 94 90 90 94 94 94 84 84 81 81 84 81 84 90 90 74 55 42 42 42 71 61 35 61 45 71 84 77 71 58 65 58
45 61 84 94 94 94 87 90 90 94 90 94 94 87 87 87 87 87 84 81 77 77 84 81 81 71 65 48 45 52 65 77 55 29 55 48 77 84 71 68 65 65 58
42 61 74 84 87 94 90 87 90 90 94 90 90 81 77 81 84 84 81 84 74 81 71 65 61 55 45 35 48 55 68 84 48 32 19 32 81 77 68 55 52 45 45
58 61 71 74 84 81 81 94 94 94 90 87 87 87 81 77 81 87 81 84 71 68 58 58 48 42 35 42 55 61 74 71 29 19 26 39 87 81 61 45 48 48 48
61 65 71 65 74 71 71 74 90 94 87 84 87 84 84 87 74 81 74 81 58 55 55 52 48 55 58 48 55 68 61 42 35 26 26 65 84 68 58 45 45 45 32
58 58 65 65 65 65 71 84 81 74 94 97 94 90 94 97 90 58 77 77 68 58 58 61 71 55 52 35 48 68 35 32 26 23 35 87 84 77 55 55 52 42 35
65 68 71 74 87 68 81 90 90 94 97 97 90 90 94 90 81 81 71 74 81 71 68 68 68 55 42 45 55 48 39 19 10 16 35 87 87 71 58 48 48 35 29
68 61 68 74 84 90 90 90 84 84 90 87 90 94 90 97 94 81 90 87 90 87 87 81 84 71 61 48 45 39 42 29 26 32 45 77 77 68 58 52 52 42 39
74 74 77 87 90 94 94 94 84 84 84 90 90 94 97 97 97 100 97 97 87 87 87 90 84 81 74 65 55 42 45 48 45 35 29 74 84 68 61 48 52 42 35
61 74 81 90 97 97 94 94 94 94 90 87 90 94 94 100 97 94 100 97 94 84 84 84 87 87 87 84 71 55 48 39 48 35 35 65 74 74 65 61 42 35 35
68 84 94 90 97 94 94 97 87 87 84 94 97 90 94 94 94 94 94 97 94 90 84 90 87 84 84 81 77 55 58 55 52 52 45 48 42 68 71 68 65 52 39
90 97 94 87 94 94 97 94 87 87 90 94 94 94 94 90 90 94 94 90 94 90 100 97 94 90 84 87 84 77 81 84 61 55 65 61 39 26 45 65 65 65 48
94 97 97 87 94 97 97 94 94 90 90 94 97 97 90 87 87 94 94 94 90 90 94 87 94 94 90 97 81 90 81 84 74 48 52 55 65 68 35 42 68 71 52
94 97 97 94 94 97 97 94 90 94 97 94 97 100 90 90 90 90 94 90 90 94 94 97 97 100 90 90 58 52 68 81 74 68 58 52 52 48 42 26 29 32 58
94 97 97 97 97 97 97 97 94 97 97 94 100 100 97 97 90 94 94 90 90 94 94 84 90 84 87 100 87 71 68 65 74 71 65 55 42 39 39 39 23 29 13
94 97 97 97 97 97 97 97 100 97 94 94 94 100 100 100 94 87 94 90 90 90 84 77 77 84 87 87 87 68 52 61 61 23 52 52 35 42 32 19 32 48 35
100 94 87 100 97 97 97 100 100 100 97 90 94 97 100 100 97 100 90 90 90 90 84 87 77 74 68 77 74 68 45 32 42 32 39 32 55 42 32 32 26 39 35
97 97 100 100 100 100 100 97 100 100 97 97 97 97 100 100 90 94 84 87 90 81 77 74 68 74 71 61 68 65 55 61 42 32 26 35 42 45 35 29 26 26 29
94 97 100 100 100 100 100 100 97 100 100 97 94 94 97 94 87 90 90 87 84 77 71 68 74 68 74 61 52 61 65 61 45 29 13 19 29 29 29 35 29 23 26
90 90 90 94 94 97 97 97 97 100 100 97 97 97 94 87 87 87 81 74 77 71 71 65 68 68 58 61 65 52 48 48 48 29 19 19 16 23 26 26 19 19 26

GEFSSE_con_cape1000_222.txt.gz
Probability
48 74 90 94 90 84 87 90 90 90 90 94 94 94 94 94 94 87 94 94 94 90 90 90 90 81 81 87 90 87 87 84 84 81 77 77 84 84 84 87 77 65 90
58 81 90 90 90 90 90 94 94 94 94 97 97 97 97 94 94 94 94 94 94 94 94 94 90 94 87 84 87 90 94 97 87 87 84 84 84 90 90 81 77 65 90
71 74 84 90 90 90 90 90 94 94 94 94 94 94 94 97 100 100 97 94 94 84 87 84 87 90 87 90 90 90 90 94 90 77 55 32 61 94 94 90 87 84 84
61 65 84 90 90 94 94 90 97 94 94 94 94 94 90 94 97 100 100 100 97 94 94 90 77 87 84 81 74 77 74 81 77 58 3 13 39 84 90 90 90 81 77
58 68 84 94 90 90 90 94 97 97 97 97 97 97 94 94 94 97 97 97 97 87 87 81 74 77 74 74 74 74 74 71 65 35 3 6 26 87 81 84 81 77 71
61 74 90 94 94 94 94 94 97 97 97 97 97 94 94 94 90 90 90 87 87 90 87 77 77 65 65 55 58 68 65 65 23 6 6 6 19 84 74 71 71 71 61
58 71 81 90 94 94 94 94 97 97 97 97 97 94 94 90 84 84 81 81 84 87 81 81 65 65 45 45 45 55 58 58 6 3 6 13 45 87 74 71 77 77 65
65 71 84 94 90 90 90 94 94 97 97 97 94 94 94 94 90 87 84 84 84 87 77 74 61 52 45 52 55 68 74 65 19 6 6 16 77 94 68 58 55 55 48
68 71 71 81 87 90 90 94 94 94 94 97 94 94 90 90 90 90 90 84 77 84 68 61 48 48 48 61 58 61 77 68 0 0 6 19 94 87 71 65 58 52 48
65 71 74 74 77 84 84 90 90 90 94 94 90 90 90 87 87 87 94 87 71 65 48 55 55 52 58 65 61 71 74 35 13 6 10 32 81 77 52 55 55 52 48
45 48 68 61 65 68 77 81 84 84 90 84 84 90 84 42 52 77 77 81 74 68 55 55 52 48 55 58 68 74 39 6 6 6 10 52 74 74 61 52 48 48 48
35 29 35 48 52 52 68 77 71 71 65 68 52 58 45 23 26 55 74 81 74 74 65 58 61 61 45 13 19 55 16 6 6 3 16 68 81 74 68 45 42 35 45
35 35 35 45 32 32 39 42 52 45 42 32 52 42 32 19 13 23 19 55 52 52 35 32 42 23 13 3 3 0 3 3 3 3 13 84 84 77 71 48 35 35 35
29 42 26 29 26 26 42 45 35 35 35 32 39 39 26 23 10 13 13 16 16 19 3 6 10 16 6 0 0 0 3 0 0 0 13 90 94 77 71 68 52 39 32
23 26 26 32 35 32 32 32 39 42 39 35 35 35 32 23 19 10 10 10 16 6 10 6 6 6 3 3 6 6 6 0 0 0 6 81 87 84 65 58 48 45 42
19 26 29 39 39 32 35 35 29 35 32 42 35 35 32 29 19 13 13 10 13 19 10 3 3 6 6 6 6 10 10 3 3 3 6 39 81 77 71 58 42 45 42
23 23 26 32 35 32 39 35 32 32 29 29 29 32 29 26 23 16 13 10 19 13 6 3 3 6 10 10 6 6 6 6 3 6 6 10 23 71 71 71 55 55 52
29 29 32 55 35 45 32 45 42 32 35 32 29 39 42 23 16 16 23 13 16 16 10 6 3 3 6 6 6 6 0 0 3 6 0 0 0 10 29 55 52 55 58
23 23 29 35 45 45 48 52 45 29 42 39 39 35 35 35 32 29 19 16 16 13 6 10 6 3 3 3 6 0 0 0 0 3 3 0 0 3 0 13 48 55 45
26 26 35 45 42 42 45 39 42 32 32 39 35 39 35 35 35 19 16 19 16 13 10 3 3 0 3 3 3 0 0 0 0 0 0 0 0 0 0 0 16 26 42
35 45 45 48 35 42 52 45 45 35 26 35 39 39 29 26 35 32 32 23 16 13 6 6 6 0 0 0 0 0 0 0 0 0 0 0 0 0 0 0 3 3 0
42 48 52 52 45 45 48 42 45 35 35 35 35 32 35 32 32 42 23 13 10 6 3 0 3 0 0 0 0 0 0 0 0 0 0 0 0 0 0 0 3 0 0
55 45 52 48 55 45 45 45 55 52 48 48 48 42 42 42 42 35 23 13 6 6 3 0 3 6 3 0 0 0 0 0 0 0 0 0 0 0 0 0 0 0 0
52 52 52 48 52 55 52 48 55 52 55 48 48 45 42 39 35 35 19 13 13 10 3 6 3 6 3 6 3 0 0 0 0 0 0 0 0 0 0 0 0 0 0
48 55 52 52 55 55 65 61 52 55 45 45 55 48 39 35 39 29 35 29 6 10 13 6 13 13 10 10 10 3 0 0 0 0 0 0 0 0 0 0 0 0 0
61 58 52 58 55 55 58 58 61 58 52 52 55 52 42 39 39 35 32 26 26 19 19 13 13 16 16 13 6 3 6 0 0 0 0 0 0 0 0 0 0 0 0